Location: La Trinit�
(48.1620°N, 3.4512°W)
Time: 09:46:24
(UTC+00:00)

Cosmos 923 Rocket - Pass Details

Date: 08 May 2021
Orbit: 758 x 785 km, 74.0° (Epoch: 12 June)

Event Time Altitude Azimuth Distance (km) Brightness Sun altitude
Rises 22:47:03 0° 336° (NNW) 3,243 8.8 -21.9°
Reaches altitude 10° 22:49:26 10° 335° (NNW) 2,316 7.6 -22.0°
Maximum altitude 22:54:41 79° 251° (WSW) 791 4.0 -22.3°
Enters shadow 22:55:53 54° 176° (S) 935 4.0 -22.4°
